sat.trackr.live / text

‹ back to catalog

STARLINK-3807

NORAD 52353 · 2022-045Y

PAYLOAD ACTIVE UNKNOWN

§ Identity

Operator
Country
US
Launch date
2022-04-29
Launch site
AFETR
Launch vehicle
Mass (kg)
RCS (m²)

Purposes: comms

External: N2YO · Heavens-Above · Gunter

§ Orbital elements

Epoch: 2026-05-24T16:04:46.027488Z

Period
95.44 min
Inclination
53.2122°
Eccentricity
0.0001664
Mean motion
15.08846316 rev/d
Perigee alt
538.6 km
Apogee alt
540.9 km
Semi-major
6,917.9 km
B*
6.7196e-5
RAAN
218.0336°
Arg perigee
79.3809°
Mean anomaly
280.7371°
Rev number
22,725

§ Raw data

STARLINK-38071 52353U 22045Y   26144.66997717  .00000782  00000+0  67196-4 0  99992 52353  53.2122 218.0336 0001664  79.3809 280.7371 15.08846316227259

JSON: /api/v1/satellites/52353 · /tle

For live sub-satellite position, see the globe view (requires WebGL).

§ Visibility from observer

Set your observer location to see the next 7 days of passes ≥ 10°. The values pass through the URL so the page stays shareable.

No JS? Fill the form by hand. The geolocation button needs JavaScript.